Overview Statistics Trail Chart Weather Telemetry Raw packets
 

This is the latest recevied weather packets stored in our database for station/object K1NOT-WX. If no packets are shown the sender has not sent any weather packets the latest 10 day(s).

<< 24 25 26 27 28 29 30 >>
Time Temp. Humidity Pressure Rain* Wind** Luminosity Snow
1777184832 10° C 45% 1000.3 hPa 0 mm - - -
1777183932 10° C 45% 1000.3 hPa 0 mm - - -
1777183032 10.56° C 47% 1000.3 hPa 0 mm - - -
1777182132 11.11° C 43% 1000.3 hPa 0 mm - - -
1777181232 12.22° C 42% 1000.3 hPa 0 mm - - -
1777180332 12.78° C 37% 1000.7 hPa 0 mm - - -
1777179432 13.33° C 35% 1000.7 hPa 0 mm - - -
1777178532 13.33° C 34% 1000.7 hPa 0 mm - - -
1777177632 12.78° C 35% 1000.7 hPa 0 mm - - -
1777176732 13.33° C 35% 1000.3 hPa 0 mm - - -
1777175832 13.33° C 34% 1000.7 hPa 0 mm - - -
1777174932 13.89° C 33% 1000.3 hPa 0 mm - - -
1777174032 13.89° C 33% 1000.7 hPa 0 mm - - -
1777173132 14.44° C 32% 1000.7 hPa 0 mm - - -
1777172233 14.44° C 31% 1000.7 hPa 0 mm - - -
1777171333 15° C 30% 1000.7 hPa 0 mm - - -
1777170433 15.56° C 29% 1000.3 hPa 0 mm - - -
1777169533 16.11° C 27% 1000.7 hPa 0 mm - - -
1777168633 16.67° C 26% 1000.7 hPa 0 mm - - -
1777167733 16.67° C 26% 1000.7 hPa 0 mm - - -
1777166833 16.67° C 26% 1000.7 hPa 0 mm - - -
1777165933 16.67° C 27% 1001 hPa 0 mm - - -
1777165033 16.67° C 26% 1001 hPa 0 mm - - -
1777164133 16.67° C 26% 1001 hPa 0 mm - - -
1777163233 16.67° C 27% 1001 hPa 0 mm - - -

* Rain latest hour (hover to see other rain measurements)
** Current wind speed in m/s (hover to see current wind gust speed)